Location: Boiro
(42.6475°N, 8.8834°W)
Time: 12:56:35
(UTC+02:00)

COSMOS 2251 DEB - Pass Details

Date: 03 July 2022
Orbit: 738 x 847 km, 74.1° (Epoch: 16 August)

Event Time Altitude Azimuth Distance (km) Brightness Sun altitude
Rises 05:41:43 0° 353° (N) 3,231 ? -12.1°
Reaches altitude 10° 05:44:54 10° 12° (NNE) 2,284 ? -11.8°
Maximum altitude 05:48:21 18° 55° (NE) 1,786 ? -11.3°
Drops below altitude 10° 05:51:46 10° 97° (E) 2,250 ? -10.9°
Sets 05:54:51 0° 116° (ESE) 3,164 ? -10.5°
